COSMOS 1275 DEB, 17617

Orbit data source: Space-Track

COSMOS 1275 DEB, 17617 is space debris in LEO originally from a launch on Thu, 04 Jun 1981 UTC launched from the Plesetsk Missile And Space Complex (PKMTR). Debris objects in space refer to the collection of defunct objects orbiting the Earth. Examples of debris include non-operational satellites, rocket bodies, and fragments generated from explosions, collisions, or faulty payload assembly.

Loading next visibility...
Identifier
17617, 1981-053KL
Orbit
LEO
Country
Flag of CISCIS
Related business
Manufacturer
Unknown
Mission
Spacecraft
Bus & Motor
Unknown
Mass
Unknown
Launch date (UTC)
1981-06-04 (45 years ago)
Launch vehicle
Unknown
Launch site
Plesetsk Missile And Space Complex (PKMTR)
Object type
Payload
Rocket body
Debris
Shape & HBR
Unknown shape, 0.1 m
Radar Cross Section
Small (<0.1 m²)

Expand to show TLE details & history
Last TLE update: 12 hours ago

TLE from 12 hours ago
0 COSMOS 1275 DEB
1 17617U 81053KL  26104.19577586  .00000956  00000-0  10110-2 0  9995
2 17617  82.8610 168.4515 0170302 330.8832  83.2025 13.67560476 33549
Epoch: 2026-04-14T04:41Z
TLE epoch observation values (Epoch: 2026-04-14T04:41:55.034Z)
Latitude
55.47123°
Longitude
-93.96962°
Altitude
1,004.772 km
Speed
7.361 km/s
True Right ascension
11h 55m 32s
True Declination
55° 18' 57"
Sunlit
Object was in daylight at epoch
Visualization orbit readout
Latitude
Unknown
Longitude
Unknown
Altitude
Unknown
Speed
Unknown
Apparent Right ascension
Unknown
Apparent Declination
Unknown
Sunlit
N/A
Visualization observer readout
Local Sidereal Time
23:25:12
Azimuth
Unknown
Elevation
Unknown
Doppler factor
Unknown
Orbital elements
Apogee altitude
1,131.248 km
Perigee altitude
879.758 km
Semi-major axis
7,383.64 km
Eccentricity
0.01703
Inclination
82.861°
RAAN
168.4515°
Arg. of periapsis
330.8832°
True anomaly
85.14482°
Mean anomaly
83.2025°
Eccentric anomaly
84.17322°
Mean motion
3.42088 °/min
Orbital period
105.24 mins
BSTAR
0.001011
Loading maneuver chart data...
Computing Atmospheric mass density...
Loading historical data...
Loading historical data...
Loading historical data...
Loading historical data...
Loading historical data...
Loading historical data...
Loading historical data...

Documentation

Showing up to 5 results
|